{"data":{"norad_id":63171,"intl_designator":"2025-046N","name":"QIANFAN-85","alt_names":[],"object_type":"PAYLOAD","status":"ACTIVE","operator":null,"country":"PRC","launch_date":"2025-03-11","launch_site_code":"WSC","launch_vehicle":null,"mission":null,"orbit_class":"UNKNOWN","rcs_meters":null,"size_class":null,"mass_kg":null,"dimensions":null,"purposes":[],"wikipedia_slug":null,"has_3d_model":false,"image_url":null,"decayed_at":null,"tle_current":{"epoch":"2026-09-22T21:00:24.935040Z","epoch_age_seconds":105733,"freshness":"FRESH","line1":"1 63171U 25046N   26265.87528860  .00000095  00000+0  12878-3 0  9992","line2":"2 63171  88.9640 290.4163 0014161  34.5304 325.6764 13.51021330 85838","mean_motion":13.5102133,"eccentricity":0.0014161,"inclination_deg":88.964,"raan_deg":290.4163,"arg_perigee_deg":34.5304,"mean_anomaly_deg":325.6764,"bstar":0.00012878,"rev_number":8583,"period_min":106.58602999258,"perigee_km":1057.958018372,"apogee_km":1079.0483927622,"semimajor_km":7446.6402055671,"source":"CELESTRAK","updated_at":"2026-09-23T09:00:21.881601Z"}}}